Weather History for Ronchi Dei Legionari, Italy

Change the Weather History Date:

Friday, November 16, 2012

  Actual Average Record
Temperature  
Mean Temperature 44 °F -  
Max Temperature 55 °F 50 °F 66 °F (2002)
Min Temperature 33 °F 35 °F 21 °F (2007)
Degree Days  
Heating Degree Days 21    
Moisture  
Dew Point 34 °F    
Average Humidity 70    
Maximum Humidity 87    
Minimum Humidity 51    
Precipitation  
Precipitation 0.00 in 0.14 in - ()
Sea Level Pressure  
Sea Level Pressure 30.18 in    
Wind  
Wind Speed 4 mph ()    
Max Wind Speed 14 mph    
Max Gust Speed -    
Averages and records for this station are not official NWS values.
T = Trace of Precipitation, MM = Missing Value Source: Averaged Metar Reports

Daily Weather History Graph

Daily Weather History Graph

Search for Another Location

Airport:

Trip Planner

Search our weather history database for the weather conditions in past years. The results will help you decide how hot, cold, wet, or windy it might be!

Date:

Astronomy

Nov. 16, 2012 Rise Set
Actual Time 7:07 AM CET 4:33 PM CET
Civil Twilight 6:35 AM CET 5:06 PM CET
Nautical Twilight 5:59 AM CET 5:42 PM CET
Astronomical Twilight 5:23 AM CET 6:17 PM CET
Moon 9:49 AM CET (11/16) 7:10 PM CET (11/16)
Length of Visible Light 10h 30m
Length of Day
9h 25m
Waxing Crescent, 9% of the Moon is Illuminated
Nov 16
Waxing Crescent
Nov 20
First Quarter
Nov 28
Full
Dec 6
Last Quarter
Dec 13
New

Hourly Weather History & Observations

Time (CET) Temp. Windchill Dew Point Humidity Pressure Visibility Wind Dir Wind Speed Gust Speed Precip Events Conditions
12:20 AM 37.4 °F 34.9 °F 30.2 °F 75% 30.18 in - Variable 3.5 mph - N/A   Clear
12:50 AM 35.6 °F - 28.4 °F 75% 30.18 in - Variable 1.2 mph - N/A   Clear
1:20 AM 37.4 °F - 32.0 °F 81% 30.18 in - Variable 1.2 mph - N/A   Clear
1:50 AM 37.4 °F - 32.0 °F 81% 30.18 in - Variable 2.3 mph - N/A   Clear
2:20 AM 35.6 °F - 30.2 °F 81% 30.18 in - Variable 1.2 mph - N/A   Clear
2:50 AM 37.4 °F 34.9 °F 33.8 °F 87% 30.18 in - Variable 3.5 mph - N/A   Clear
3:20 AM 35.6 °F 31.7 °F 32.0 °F 87% 30.18 in - NNW 4.6 mph - N/A   Clear
3:50 AM 35.6 °F 32.8 °F 32.0 °F 87% 30.15 in - Variable 3.5 mph - N/A   Clear
4:20 AM 35.6 °F 32.8 °F 30.2 °F 81% 30.15 in - Variable 3.5 mph - N/A   Clear
4:50 AM 35.6 °F 32.8 °F 30.2 °F 81% 30.15 in - Variable 3.5 mph - N/A   Clear
5:20 AM 35.6 °F 31.7 °F 32.0 °F 87% 30.15 in - NNW 4.6 mph - N/A   Clear
5:50 AM 35.6 °F 32.8 °F 32.0 °F 87% 30.18 in - Variable 3.5 mph - N/A   Clear
6:20 AM 35.6 °F - 30.2 °F 81% 30.18 in - Variable 2.3 mph - N/A   Clear
6:50 AM 35.6 °F - 30.2 °F 81% 30.18 in - Variable 2.3 mph - N/A   Clear
7:20 AM 33.8 °F - 28.4 °F 81% 30.18 in - Variable 1.2 mph - N/A   Clear
7:50 AM 35.6 °F - 30.2 °F 81% 30.18 in - Variable 1.2 mph - N/A   Clear
8:20 AM 37.4 °F - 33.8 °F 87% 30.18 in - Variable 2.3 mph - N/A   Clear
8:50 AM 41.0 °F - 37.4 °F 87% 30.21 in - Variable 2.3 mph - N/A   Clear
9:20 AM 44.6 °F 43.1 °F 39.2 °F 81% 30.21 in - Variable 3.5 mph - N/A   Clear
9:50 AM 48.2 °F - 39.2 °F 71% 30.21 in - North 4.6 mph - N/A   Clear
10:20 AM 50.0 °F - 39.2 °F 66% 30.21 in - Variable 3.5 mph - N/A   Clear
10:50 AM 53.6 °F - 37.4 °F 54% 30.21 in - Variable 3.5 mph - N/A   Clear
11:20 AM 53.6 °F - 35.6 °F 51% 30.21 in - Variable 3.5 mph - N/A   Clear
11:50 AM 55.4 °F - 39.2 °F 54% 30.24 in - East 6.9 mph - N/A   Clear
12:20 PM 55.4 °F - 37.4 °F 51% 30.18 in - East 10.4 mph - N/A   Clear
12:50 PM 55.4 °F - 37.4 °F 51% 30.18 in - ESE 13.8 mph - N/A   Clear
1:20 PM 55.4 °F - 39.2 °F 54% 30.18 in - ESE 12.7 mph - N/A   Clear
1:50 PM 55.4 °F - 37.4 °F 51% 30.18 in - ESE 6.9 mph - N/A   Clear
2:20 PM 55.4 °F - 37.4 °F 51% 30.15 in - East 11.5 mph - N/A   Clear
2:50 PM 55.4 °F - 37.4 °F 51% 30.15 in - East 9.2 mph - N/A   Clear
3:20 PM 55.4 °F - 37.4 °F 51% 30.15 in - ESE 6.9 mph - N/A   Clear
3:50 PM 51.8 °F - 37.4 °F 58% 30.15 in - East 8.1 mph - N/A   Clear
4:20 PM 51.8 °F - 35.6 °F 54% 30.15 in - East 6.9 mph - N/A   Clear
4:50 PM 50.0 °F - 33.8 °F 54% 30.15 in - Variable 3.5 mph - N/A   Clear
5:20 PM 46.4 °F 42.9 °F 33.8 °F 62% 30.15 in - East 6.9 mph - N/A   Clear
5:50 PM 46.4 °F 45.2 °F 33.8 °F 62% 30.15 in - Variable 3.5 mph - N/A   Clear
6:20 PM 46.4 °F 45.2 °F 33.8 °F 62% 30.18 in - Variable 3.5 mph - N/A   Clear
6:50 PM 44.6 °F - 32.0 °F 61% 30.18 in - Variable 1.2 mph - N/A   Clear
7:50 PM 42.8 °F 40.1 °F 32.0 °F 66% 30.18 in - NNE 4.6 mph - N/A   Clear
8:20 PM 42.8 °F 41.1 °F 33.8 °F 70% 30.18 in - Variable 3.5 mph - N/A   Clear
8:50 PM 42.8 °F 39.3 °F 33.8 °F 70% 30.18 in - North 5.8 mph - N/A   Clear
9:20 PM 41.0 °F 38.0 °F 32.0 °F 70% 30.18 in - North 4.6 mph - N/A   Clear
9:50 PM 41.0 °F 38.0 °F 32.0 °F 70% 30.18 in - NNE 4.6 mph - N/A   Clear
10:20 PM 41.0 °F 39.0 °F 32.0 °F 70% 30.18 in - Variable 3.5 mph - N/A   Clear
10:50 PM 39.2 °F - 30.2 °F 70% 30.18 in - Calm Calm - N/A   Clear
11:20 PM 37.4 °F - 30.2 °F 75% 30.15 in - Variable 2.3 mph - N/A   Clear
11:50 PM 37.4 °F - 30.2 °F 75% 30.15 in - Variable 1.2 mph - N/A   Clear